KUIPER-00089

Last updated on Sat Aug 16 2025 00:02:06 GMT+0000 (Coordinated Universal Time)

1 64834U 25151U 25227.46855498 .00037559 00000+0 10700-2 0 9994 2 64834 51.8794 142.0379 0005332 263.7823 96.2556 15.35717846 4634
UTC large
Height (km)
Speed (km/s)
/
Latitude / Longitude
Inclination (degrees)
Orbital Period (minutes)
Azimuth
Elevation
Range (km)
Doppler Factor

Next 0 passes for location: London (51.5072 / 0.1276)

Sorry there are no passes over London.